Starlink 33813

operational
NORAD ID: 63585 Int'l Des: 2025-076 Owner: SPXS Country: US Constellation: starlink
LEOCIRCULAR

About Starlink 33813

Description loading...

Live Position

Loading 3D Globe...

Upcoming Passes

Altitude History

Altitude vs Time

uPlot chart will show altitude changes over time

Two-Line Element Set

1 63585U 25076S 25303.49402084 .00043282 00000-0 15716-2 0 9992
2 63585 43.0001 336.5440 0000504 57.3602 302.7298 15.27612578 31924
Epoch: Oct 30, 2025 • Age: 29 hours

Current Status

Altitude 485.0 km
Velocity 7.63 km/s
Sub-Earth Point 40.44°N, 155.6°E
Launch Date Apr 14, 2025
Age 0.5 years
Type internet

Technical Details

Classification Payload
Mass 575.00 kg
Dry Mass 530.00 kg
Total Mass 575.00 kg
Length 0.30 m
Diameter 4.10 m
Span 29.00 m
Shape Box + pan
Manufacturer SPXS
Bus Type Starlink V2MO
Phase Status In Orbit
Owner/State SPXS/US

Large Constellations

Loading constellations...